Hauptseite
METAR-TAF:

METAR-TAF

Flughäfen :

Flughafen Vannes

Vannes, Frankreich

Breite: 47-43-19N, Länge: 2-43-41W, Höhe: 130 m

Beobachtung

Neuester Wetterbericht von vor 22 Minuten, um 07:30 UTC
Wind 7 kt aus Süd/Südost
Temperatur 13°C
Luftfeuchtigkeit 82%
Luftdruck 1021 hPa
Sichtweite 10 km oder mehr
keine Wolken unter 1500 m und keine Kumulonimbus oder Gewitterwolken

METAR: LFRV 220730Z AUTO 15007KT CAVOK 13/10 Q1021

Zeit: 09:52 (07:52 UTC)


TAF: fehlend

Wetterbeobachtungen und Prognosen von mehr als 4000 Flughäfen (METAR und TAF Bericht).

Die verfügbaren Stationen werden durch gelbe und rote Markierungen auf der Karte dargestellt.

Führen Sie die Maus auf sie, um den Namen der Station zu sehen.

Darauf klicken, um die Beobachtung von Wetterbeobachtungen und Prognosen zu sehen.

Um die Karte zu ändern : klicken Sie auf den grünen Tasten mit einem schwarzen Kreuz Zum Vergrößern, auf den grünen Button mit einem Gedankenstrich zu verkleinern, oder auf die grünen Pfeile für benachbarte Karten.


METAR-TAF: